TimeAST,TemperatureF,Dew PointF,Humidity,Sea Level PressureIn,VisibilityMPH,Wind Direction,Wind SpeedMPH,Gust SpeedMPH,PrecipitationIn,Events,Conditions,WindDirDegrees,DateUTC
12:00 AM,91.4,82.4,75,29.53,-9999.0,North,3.5,-,N/A,,Clear,10,2013-08-24 21:00:00
12:30 AM,91.4,82.4,75,29.53,-9999.0,Variable,1.2,-,N/A,,Clear,0,2013-08-24 21:30:00
1:00 AM,89.6,82.4,79,29.53,-9999.0,Calm,Calm,-,N/A,,Clear,0,2013-08-24 22:00:00
1:30 AM,89.6,82.4,79,29.53,-9999.0,Calm,Calm,-,N/A,,Clear,0,2013-08-24 22:30:00
2:00 AM,89.6,82.4,79,29.53,-9999.0,Variable,2.3,-,N/A,,Clear,0,2013-08-24 23:00:00
2:30 AM,89.6,80.6,75,29.53,-9999.0,SSW,4.6,-,N/A,,Clear,210,2013-08-24 23:30:00
3:00 AM,89,78,63,29.55,6,SW,5.8,,,,,220,2013-08-25 00:00:00
3:00 AM,89.6,78.8,70,29.53,-9999.0,SW,5.8,-,N/A,,Clear,220,2013-08-25 00:00:00
3:30 AM,87.8,75.2,66,29.53,-9999.0,SW,3.5,-,N/A,,Clear,230,2013-08-25 00:30:00
4:00 AM,89.6,75.2,62,29.53,-9999.0,WSW,4.6,-,N/A,,Clear,250,2013-08-25 01:00:00
4:30 AM,89.6,75.2,62,29.56,-9999.0,WSW,5.8,-,N/A,,Clear,250,2013-08-25 01:30:00
5:00 AM,87.8,73.4,62,29.56,-9999.0,West,3.5,-,N/A,,Clear,270,2013-08-25 02:00:00
5:30 AM,87.8,75.2,66,29.56,-9999.0,West,5.8,-,N/A,,Clear,280,2013-08-25 02:30:00
6:00 AM,87.8,77.0,70,29.56,-9999.0,West,4.6,-,N/A,,Clear,260,2013-08-25 03:00:00
6:30 AM,87.8,77.0,70,29.56,-9999.0,West,3.5,-,N/A,,Clear,260,2013-08-25 03:30:00
7:30 AM,93.2,73.4,52,29.59,-9999.0,Variable,4.6,-,N/A,,Clear,0,2013-08-25 04:30:00
8:00 AM,93.2,71.6,49,29.59,-9999.0,WNW,3.5,-,N/A,,Clear,290,2013-08-25 05:00:00
9:00 AM,101,58,16,29.60,6,North,8.1,,,,,10,2013-08-25 06:00:00
9:00 AM,102.2,59.0,24,29.59,5.6,North,6.9,-,N/A,,Unknown,10,2013-08-25 06:00:00
9:30 AM,102.2,57.2,22,29.59,5.6,ENE,6.9,-,N/A,,Unknown,60,2013-08-25 06:30:00
10:00 AM,102.2,55.4,21,29.59,5.6,NNE,5.8,-,N/A,,Unknown,30,2013-08-25 07:00:00
11:00 AM,104.0,57.2,21,29.59,-9999.0,North,6.9,-,N/A,,Clear,360,2013-08-25 08:00:00
11:30 AM,104.0,55.4,20,29.59,-9999.0,North,9.2,-,N/A,,Clear,10,2013-08-25 08:30:00
12:00 PM,102.2,60.8,26,29.56,-9999.0,NE,10.4,-,N/A,,Clear,40,2013-08-25 09:00:00
1:00 PM,100.4,68.0,35,29.56,-9999.0,ENE,10.4,-,N/A,,Clear,70,2013-08-25 10:00:00
1:30 PM,100.4,69.8,37,29.56,-9999.0,ENE,11.5,-,N/A,,Clear,60,2013-08-25 10:30:00
2:00 PM,98.6,75.2,47,29.53,-9999.0,ENE,10.4,-,N/A,,Clear,60,2013-08-25 11:00:00
2:30 PM,98.6,75.2,47,29.53,-9999.0,ENE,10.4,-,N/A,,Clear,60,2013-08-25 11:30:00
3:00 PM,98,78,43,29.55,9,ENE,10.4,,,,,60,2013-08-25 12:00:00
3:00 PM,98.6,77.0,50,29.53,-9999.0,ENE,10.4,-,N/A,,Clear,60,2013-08-25 12:00:00
3:30 PM,96.8,77.0,53,29.53,-9999.0,ENE,11.5,-,N/A,,Clear,60,2013-08-25 12:30:00
4:00 PM,96.8,80.6,60,29.53,-9999.0,ENE,11.5,-,N/A,,Clear,60,2013-08-25 13:00:00
4:30 PM,96.8,82.4,63,29.53,-9999.0,NE,11.5,-,N/A,,Clear,50,2013-08-25 13:30:00
5:00 PM,96.8,80.6,60,29.53,-9999.0,NE,10.4,-,N/A,,Clear,50,2013-08-25 14:00:00
5:30 PM,95.0,80.6,63,29.53,-9999.0,NE,10.4,-,N/A,,Clear,40,2013-08-25 14:30:00
6:00 PM,95.0,80.6,63,29.53,-9999.0,NNE,9.2,-,N/A,,Clear,30,2013-08-25 15:00:00
6:30 PM,93.2,82.4,71,29.53,-9999.0,NNE,10.4,-,N/A,,Clear,20,2013-08-25 15:30:00
7:00 PM,93.2,82.4,71,29.53,-9999.0,North,8.1,-,N/A,,Clear,10,2013-08-25 16:00:00
7:30 PM,93.2,82.4,71,29.53,-9999.0,NNE,8.1,-,N/A,,Clear,20,2013-08-25 16:30:00
8:00 PM,93.2,82.4,71,29.56,-9999.0,NNE,5.8,-,N/A,,Clear,20,2013-08-25 17:00:00
8:30 PM,93.2,82.4,71,29.56,-9999.0,North,6.9,-,N/A,,Clear,10,2013-08-25 17:30:00
9:00 PM,92,83,68,29.58,6,North,8.1,,,,,10,2013-08-25 18:00:00
9:00 PM,93.2,82.4,71,29.56,-9999.0,North,8.1,-,N/A,,Clear,10,2013-08-25 18:00:00
9:30 PM,93.2,82.4,71,29.56,-9999.0,North,6.9,-,N/A,,Clear,360,2013-08-25 18:30:00
10:00 PM,93.2,82.4,71,29.56,-9999.0,North,6.9,-,N/A,,Clear,360,2013-08-25 19:00:00
10:30 PM,91.4,82.4,75,29.56,-9999.0,North,5.8,-,N/A,,Clear,360,2013-08-25 19:30:00
11:00 PM,91.4,82.4,75,29.56,-9999.0,North,6.9,-,N/A,,Clear,10,2013-08-25 20:00:00